Regional Weather Roundup
Issued by NWS Little Rock, AR

Home | Current Version | Previous Version | Graphics & Text | Print | Product List | Glossary On
Versions: 1 2 3 4 5 6 7 8 9 10 11 12 13 14 15 16 17 18 19 20 21 22 23 24 25 26 27 28 29 30 31 32 33 34 35 36 37 38 39 40 41 42 43 44 45 46 47 48 49 50
000
ASUS44 KLZK 011705
RWRLZK

WEATHER ROUNDUP FOR ARKANSAS
NATIONAL WEATHER SERVICE LITTLE ROCK AR
1200 PM CDT WED APR 01 2015

NOTE: "FAIR" INDICATES FEW OR NO CLOUDS BELOW 12,000 FEET WITH NO
SIGNIFICANT WEATHER AND/OR OBSTRUCTIONS TO VISIBILITY.

ARZ001-003-010-029-011800-
NORTHWEST ARKANSAS

CITY           SKY/WX    TMP DP  RH WIND       PRES   REMARKS
FAYETTEVILLE   CLOUDY    70  61  73 S12       29.93F
FORT SMITH     CLOUDY    73  61  65 S14       29.93F
HARRISON       LGT RAIN  61  60  97 S8        29.98R FOG
BENTONVILLE    CLOUDY    66  61  82 SE7       29.95F
ROGERS         CLOUDY    63  58  83 E6        29.95
SILOAM SPGS    CLOUDY    66  57  72 SE6       29.94F
HIGHFILL       CLOUDY    66  61  84 SE3       29.93F
SPRINGDALE     CLOUDY    66  61  82 CALM      29.96F
$$

ARZ004-005-016-011800-
NORTH CENTRAL ARKANSAS

CITY           SKY/WX    TMP DP  RH WIND       PRES   REMARKS
BATESVILLE     CLOUDY    64  59  82 E15       29.98F
FLIPPIN        CLOUDY    63  55  77 E9        29.96F
MTN HOME       CLOUDY    63  57  81 E8        29.97S
$$

ARZ040-041-011800-
WEST CENTRAL ARKANSAS

CITY           SKY/WX    TMP DP  RH WIND       PRES   REMARKS
MENA           CLOUDY    72  64  78 SW3       29.98F
MOUNT IDA      CLOUDY    70  62  76 VRB6      29.97S
$$

ARZ009-017-025-026-028-011800-
NORTHEAST ARKANSAS

CITY           SKY/WX    TMP DP  RH WIND       PRES   REMARKS
CORNING          N/A     72  48  43 SE16      30.03F
JONESBORO      PTSUNNY   71  60  68 SE15      30.01S
NEWPORT        CLOUDY    67  63  87 SE7       30.02S
BLYTHEVILLE    SUNNY     73  43  33 SE10      30.03F
$$

ARZ022-023-033-042-044-011800-
CENTRAL ARKANSAS

CITY           SKY/WX    TMP DP  RH WIND       PRES   REMARKS
LITTLE ROCK    CLOUDY    76  62  62 SE8       29.97F
N LITTLE ROCK  CLOUDY    73  65  78 S8        29.97F
JACKSONVILLE   CLOUDY    73  64  73 SE10      29.96F
SEARCY         CLOUDY    73  65  75 SE8       29.99F
HOT SPRINGS    PTSUNNY   73  63  70 SW7       29.99S
RUSSELLVILLE   CLOUDY    69  64  84 SE3       29.97R
CLINTON        CLOUDY    64  63  94 CALM      30.01R FOG
$$

ARZ036-011800-
EAST ARKANSAS

CITY           SKY/WX    TMP DP  RH WIND       PRES   REMARKS
WEST MEMPHIS   MOSUNNY   72  64  76 SE12      30.00F
$$

ARZ050-053-066-070-073-011800-
SOUTHWEST ARKANSAS

CITY           SKY/WX    TMP DP  RH WIND       PRES   REMARKS
ARKADELPHIA    FAIR      78  67  68 S9        29.99F
CAMDEN         PTSUNNY   81  59  47 MISG      29.98F
TEXARKANA      CLOUDY    73  65  75 S9        29.98F
EL DORADO      CLOUDY    78  60  53 S14       30.01S
DE QUEEN       CLOUDY    73  64  73 S8        29.93F
$$

ARZ056-057-069-011800-
SOUTHEAST ARKANSAS

CITY           SKY/WX    TMP DP  RH WIND       PRES   REMARKS
PINE BLUFF     CLOUDY    70  64  81 S10       30.00S
STUTTGART      MOSUNNY   75  63  64 S10       30.00S
MONTICELLO     CLOUDY    76  63  64 SW9       30.00F

$$





USA.gov is the U.S. government's official web portal to all federal, state and local government web resources and services.